STARLINK-34877

Last updated on Sun Oct 19 2025 00:02:05 GMT+0000 (Coordinated Universal Time)

1 65630U 25210J 25291.18752729 .00081093 00000+0 20140-2 0 9999 2 65630 53.1596 251.0975 0001180 93.3991 266.7149 15.39646875 5884

Satellite not in orbit

STARLINK-34877